FW7035 Weather Reports


time (UTC)temp
F
wind
direction
speed
knots
gust
knots
rain 1hr
in
rain 24hr
in
rain mn
in
humidity
%
barometer
mb
20260507115059 52 78 0.0 0.9 0.00 0.14 0.14 90 1011.5
20260507114555 52 50 0.0 1.7 0.00 0.14 0.14 92 1011.2
20260507114053 52 113 1.7 1.7 0.00 0.14 0.14 92 1011.3
20260507113549 52 269 0.0 0.9 0.00 0.14 0.14 94 1011.0
20260507113047 52 57 0.0 1.7 0.00 0.14 0.14 95 1011.2
20260507112544 52 339 0.0 0.0 0.00 0.14 0.14 95 1011.2
20260507112041 52 167 0.0 0.9 0.00 0.14 0.14 95 1011.6
20260507111538 52 166 0.0 1.7 0.00 0.14 0.14 95 1011.5
20260507111035 52 113 0.0 0.0 0.00 0.14 0.14 95 1011.3
20260507110531 52 113 0.0 0.0 0.00 0.14 0.14 95 1011.2
20260507110027 52 113 0.0 0.0 0.00 0.14 0.14 96 1011.3
20260507105525 52 113 0.0 1.7 0.00 0.14 0.14 96 1011.2
20260507105020 52 141 0.0 1.7 0.00 0.14 0.14 95 1010.8
20260507104518 52 117 0.0 1.7 0.00 0.14 0.14 95 1011.1
20260507104015 51 89 0.0 0.0 0.00 0.14 0.14 95 1010.9
20260507103505 51 72 0.0 0.0 0.00 0.14 0.14 95 1010.8
20260507103001 51 116 0.0 0.0 0.00 0.14 0.14 95 1010.7
20260507102458 51 89 0.0 0.0 0.00 0.14 0.14 95 1010.7
20260507101954 51 135 0.0 0.0 0.00 0.14 0.14 95 1010.8
20260507101449 51 95 0.9 1.7 0.00 0.14 0.14 95 1010.6
20260507100946 52 32 0.0 0.0 0.00 0.14 0.14 95 1010.5
20260507100444 52 126 0.0 1.7 0.00 0.14 0.14 95 1010.4
20260507095942 52 128 1.7 1.7 0.00 0.14 0.14 95 1010.3
20260507095439 52 80 0.0 0.0 0.00 0.14 0.14 95 1010.4
20260507094936 52 103 0.0 0.0 0.00 0.14 0.14 95 1010.4
20260507094432 52 76 0.0 0.9 0.00 0.14 0.14 95 1010.4
20260507093929 52 49 0.0 0.9 0.00 0.14 0.14 95 1010.3
20260507093427 52 95 0.0 0.9 0.00 0.14 0.14 95 1010.5
20260507092925 52 124 0.0 0.9 0.00 0.14 0.14 95 1010.7
20260507092421 52 100 0.0 0.9 0.00 0.14 0.14 95 1010.4
20260507091918 52 91 0.9 1.7 0.00 0.14 0.14 95 1010.5
20260507091414 52 109 0.9 1.7 0.00 0.14 0.14 95 1010.7
20260507090910 52 112 0.0 2.6 0.00 0.14 0.14 95 1010.6
20260507090406 52 102 0.0 0.9 0.00 0.14 0.14 95 1010.4
20260507085903 52 135 0.0 0.9 0.00 0.14 0.14 95 1010.4
20260507085400 52 69 0.0 0.9 0.00 0.14 0.14 95 1010.1
20260507084858 52 124 0.0 1.7 0.00 0.14 0.14 95 1010.2
20260507084354 52 49 0.0 0.9 0.00 0.14 0.14 95 1010.2
20260507083851 52 142 0.0 0.9 0.00 0.14 0.14 95 1010.2
20260507083347 52 119 0.0 1.7 0.00 0.14 0.14 95 1009.9
20260507082844 52 129 0.9 0.9 0.00 0.14 0.14 95 1009.8
20260507082339 52 113 0.0 1.7 0.00 0.14 0.14 95 1009.6
20260507081837 52 70 0.9 1.7 0.00 0.14 0.14 95 1009.7
20260507081333 52 52 0.0 0.9 0.00 0.14 0.14 95 1009.4
20260507080830 52 73 0.9 2.6 0.00 0.14 0.14 95 1009.6
20260507080326 52 80 0.0 0.9 0.00 0.14 0.14 95 1009.7
20260507075821 52 89 0.0 1.7 0.00 0.14 0.14 95 1009.6
20260507075317 52 79 2.6 2.6 0.00 0.14 0.14 95 1009.4
20260507074814 52 51 0.9 1.7 0.00 0.14 0.14 95 1009.4
20260507074312 52 76 0.0 0.9 0.00 0.14 0.14 95 1009.7
20260507073809 52 95 0.0 0.9 0.02 0.14 0.14 95 1009.3
20260507073306 52 65 0.9 0.9 0.02 0.14 0.14 95 1009.6
20260507072803 52 72 0.0 1.7 0.00 0.13 0.13 94 1009.6
20260507072300 52 56 0.0 0.9 0.02 0.13 0.13 94 1009.4
20260507071757 52 53 0.0 1.7 0.02 0.13 0.13 94 1009.7
20260507071254 52 101 1.7 1.7 0.02 0.13 0.13 94 1009.5
20260507070751 53 354 0.0 2.6 0.05 0.13 0.13 95 1009.4
20260507070248 53 105 2.6 2.6 0.02 0.13 0.13 95 1009.6
20260507065744 54 63 1.7 1.7 0.00 0.12 0.12 95 1009.8
20260507065241 54 105 1.7 1.7 0.00 0.12 0.12 95 1009.8
20260507064738 54 97 0.9 1.7 0.00 0.12 0.12 95 1009.9
20260507064237 54 73 0.9 1.7 0.00 0.12 0.12 95 1009.7
20260507063734 54 98 0.9 1.7 0.00 0.12 0.12 95 1009.4
20260507063231 54 50 0.0 1.7 0.00 0.12 0.12 95 1009.5
20260507062728 54 70 0.9 1.7 0.00 0.12 0.12 95 1009.2
20260507062225 54 44 0.0 1.7 0.00 0.12 0.12 95 1009.5
20260507061723 54 114 0.0 2.6 0.00 0.12 0.12 95 1009.7
20260507061221 54 129 0.0 0.9 0.00 0.12 0.12 95 1009.7
20260507060719 54 58 0.9 1.7 0.00 0.12 0.12 95 1009.6
20260507060215 54 32 0.0 2.6 0.00 0.12 0.12 95 1009.5
20260507055711 55 68 0.0 1.7 0.00 0.12 0.12 95 1009.5
20260507055207 55 92 0.9 2.6 0.00 0.12 0.12 95 1009.7
20260507054703 55 129 0.0 0.9 0.00 0.12 0.12 95 1009.7
20260507054200 55 32 0.9 0.9 0.00 0.12 0.12 95 1009.6
20260507053658 55 106 0.9 1.7 0.00 0.12 0.12 95 1009.7
20260507053156 55 224 2.6 2.6 0.00 0.12 0.12 95 1009.9
20260507052654 55 129 0.0 2.6 0.02 0.12 0.12 94 1009.7
20260507052150 55 125 0.0 1.7 0.02 0.12 0.12 94 1009.7
20260507051648 55 135 0.0 0.0 0.00 0.12 0.12 94 1009.8
20260507051144 55 124 0.0 1.7 0.02 0.12 0.12 94 1009.3
20260507050641 56 102 0.9 1.7 0.05 0.12 0.12 93 1009.7
20260507050138 56 109 1.7 1.7 0.02 0.11 0.11 93 1009.7
20260507045635 56 102 1.7 1.7 0.14 0.11 0.11 92 1009.7
20260507045131 56 356 0.0 2.6 0.31 0.11 0.11 91 1010.1
20260507044628 56 137 0.9 1.7 0.21 0.08 0.08 91 1009.9
20260507044125 57 55 0.9 1.7 0.26 0.06 0.06 89 1009.7
20260507043621 57 76 0.9 1.7 0.17 0.04 0.04 88 1009.4
20260507043119 58 96 3.5 3.5 0.00 0.01 0.01 86 1009.6
20260507042615 58 102 0.9 0.9 0.02 0.01 0.01 86 1009.7
20260507042110 58 102 2.6 3.5 0.02 0.01 0.01 86 1009.4
20260507041607 59 104 0.0 2.6 0.02 0.01 0.01 85 1009.7
20260507041104 59 91 2.6 2.6 0.02 0.01 0.01 85 1009.3
20260507040600 60 72 1.7 1.7 0.02 0.00 0.00 83 1009.3
20260507040057 60 32 1.7 2.6 0.00 0.00 0.00 81 1009.3
20260507035553 60 44 0.9 1.7 0.00 0.17 0.17 80 1009.0
20260507035049 61 61 1.7 2.6 0.00 0.17 0.17 79 1009.1
20260507034546 61 70 0.9 2.6 0.00 0.17 0.17 79 1008.7
20260507034044 61 74 0.9 2.6 0.00 0.17 0.17 80 1008.9
20260507033542 61 22 0.0 0.9 0.00 0.17 0.17 79 1009.0
20260507033039 61 45 2.6 2.6 0.00 0.17 0.17 79 1008.6
20260507032536 61 108 1.7 1.7 0.00 0.17 0.17 79 1009.1
20260507032032 61 87 2.6 3.5 0.00 0.17 0.17 78 1009.0
20260507031528 61 269 0.9 2.6 0.00 0.17 0.17 78 1009.0
20260507031026 62 66 0.0 1.7 0.00 0.17 0.17 78 1009.1
20260507030522 62 240 2.6 2.6 0.00 0.17 0.17 78 1009.0
20260507030020 62 342 0.0 2.6 0.00 0.17 0.17 78 1008.6
20260507025517 62 78 0.9 1.7 0.00 0.17 0.17 78 1008.5
20260507025015 62 47 2.6 2.6 0.00 0.17 0.17 77 1008.5
20260507024512 62 29 0.0 2.6 0.00 0.17 0.17 78 1008.7
20260507024009 62 51 1.7 4.3 0.00 0.17 0.17 77 1008.5
20260507023504 62 66 1.7 2.6 0.00 0.17 0.17 77 1008.6
20260507023002 62 50 4.3 4.3 0.00 0.17 0.17 78 1008.5
20260507022459 62 43 0.9 2.6 0.00 0.17 0.17 78 1008.4
20260507021954 62 75 0.9 2.6 0.00 0.17 0.17 79 1008.3
20260507021450 62 47 1.7 3.5 0.00 0.17 0.17 80 1008.3
20260507020947 63 56 0.9 1.7 0.00 0.17 0.17 80 1008.3
20260507020444 63 11 1.7 3.5 0.00 0.17 0.17 80 1008.7
20260507015941 63 67 0.9 2.6 0.00 0.17 0.17 82 1008.5
20260507015439 64 65 2.6 2.6 0.00 0.17 0.17 84 1008.5
20260507014936 64 18 0.0 1.7 0.00 0.17 0.17 85 1008.3
20260507014432 64 42 1.7 1.7 0.00 0.17 0.17 86 1008.0
20260507013929 64 69 1.7 2.6 0.00 0.17 0.17 86 1008.0
20260507013426 64 102 1.7 2.6 0.00 0.17 0.17 86 1008.3
20260507012923 65 96 0.9 2.6 0.00 0.17 0.17 86 1008.5
20260507012420 65 82 0.0 1.7 0.00 0.17 0.17 85 1008.3
20260507011917 65 346 1.7 2.6 0.00 0.17 0.17 84 1008.2
20260507011414 65 293 0.0 1.7 0.00 0.17 0.17 82 1008.4
20260507010913 66 320 1.7 2.6 0.00 0.17 0.17 82 1008.3
20260507010409 66 203 1.7 3.5 0.00 0.17 0.17 82 1008.6
20260507005907 66 254 0.9 5.2 0.02 0.17 0.17 81 1008.4
20260507005403 66 87 1.7 2.6 0.02 0.17 0.17 82 1008.0
20260507004900 67 53 0.0 2.6 0.00 0.16 0.16 83 1008.1
20260507004357 67 3 0.0 1.7 0.00 0.16 0.16 82 1008.1
20260507003854 67 217 0.0 0.0 0.00 0.16 0.16 82 1007.9
20260507003349 67 166 0.0 0.9 0.00 0.16 0.16 82 1008.0
20260507002845 67 200 0.0 1.7 0.00 0.16 0.16 82 1007.8
20260507002341 67 187 0.9 1.7 0.00 0.16 0.16 82 1008.0
20260507001838 67 156 0.9 2.6 0.00 0.16 0.16 81 1007.6
20260507001335 68 158 2.6 2.6 0.00 0.16 0.16 81 1007.4
20260507000832 68 157 0.0 0.9 0.00 0.16 0.16 81 1007.6
20260507000328 68 173 0.9 1.7 0.00 0.16 0.16 80 1007.7
20260506235824 68 158 1.7 1.7 0.00 0.16 0.16 80 1007.6
20260506235320 68 144 0.0 0.0 0.00 0.16 0.16 79 1007.6
20260506234817 68 195 0.0 1.7 0.00 0.16 0.16 79 1007.6
20260506234314 68 129 0.0 0.9 0.00 0.16 0.16 78 1006.9
20260506233811 68 210 0.9 1.7 0.00 0.16 0.16 78 1007.0
20260506233307 68 276 0.0 2.6 0.00 0.16 0.16 77 1007.5
20260506232805 69 219 2.6 2.6 0.00 0.16 0.16 77 1007.3
20260506232300 69 162 2.6 4.3 0.00 0.16 0.16 77 1007.0
20260506231757 69 179 1.7 2.6 0.00 0.16 0.16 77 1006.9
20260506231255 69 232 0.0 2.6 0.00 0.16 0.16 77 1006.9
20260506230752 69 131 0.0 4.3 0.00 0.16 0.16 77 1007.0
20260506230249 69 219 0.9 3.5 0.00 0.16 0.16 76 1007.2
20260506225745 69 196 0.9 3.5 0.00 0.16 0.16 76 1006.9
20260506225243 69 248 0.0 4.3 0.00 0.16 0.16 76 1006.9
20260506224739 69 286 0.0 2.6 0.00 0.16 0.16 76 1006.7
20260506224236 69 196 2.6 4.3 0.00 0.16 0.16 75 1006.5
20260506223732 69 149 1.7 2.6 0.00 0.16 0.16 76 1006.9
20260506223228 69 188 0.9 2.6 0.00 0.16 0.16 76 1006.8
20260506222725 68 156 2.6 3.5 0.00 0.16 0.16 76 1006.9
20260506222220 69 209 0.9 1.7 0.00 0.16 0.16 76 1007.0
20260506221719 69 182 2.6 5.2 0.00 0.16 0.16 76 1006.7
20260506221217 69 180 0.9 4.3 0.00 0.16 0.16 75 1006.8
20260506220714 69 163 2.6 2.6 0.00 0.16 0.16 75 1006.9
20260506220208 69 175 2.6 6.1 0.00 0.16 0.16 74 1006.7
20260506215705 69 226 6.1 6.1 0.00 0.16 0.16 74 1007.2
20260506215201 69 172 1.7 2.6 0.00 0.16 0.16 74 1006.9
20260506214657 69 185 2.6 7.8 0.00 0.16 0.16 73 1006.9
20260506214155 70 119 1.7 6.1 0.00 0.16 0.16 73 1006.8
20260506213653 70 209 5.2 5.2 0.00 0.16 0.16 73 1006.7
20260506213150 70 154 1.7 2.6 0.00 0.16 0.16 73 1006.5
20260506212647 70 177 1.7 9.6 0.00 0.16 0.16 72 1006.6
20260506212142 69 215 3.5 6.1 0.00 0.16 0.16 73 1006.5
20260506211638 69 197 4.3 7.8 0.00 0.16 0.16 73 1006.5
20260506211135 69 157 3.5 7.0 0.00 0.16 0.16 73 1006.5
20260506210631 69 238 1.7 4.3 0.00 0.16 0.16 73 1006.6
20260506210128 70 185 1.7 4.3 0.00 0.16 0.16 73 1006.4
20260506205625 70 210 8.7 10.4 0.00 0.16 0.16 71 1006.2
20260506205120 70 171 2.6 4.3 0.00 0.16 0.16 71 1006.1
20260506204618 71 184 1.7 4.3 0.00 0.16 0.16 70 1006.4
20260506204115 71 171 4.3 6.1 0.00 0.16 0.16 70 1006.0
20260506203614 70 209 3.5 4.3 0.00 0.16 0.16 72 1006.2
20260506203109 69 144 1.7 4.3 0.00 0.16 0.16 73 1006.3
20260506202608 70 280 1.7 5.2 0.00 0.16 0.16 73 1006.3
20260506202104 69 225 4.3 7.8 0.00 0.16 0.16 73 1006.6
20260506201601 69 258 2.6 5.2 0.00 0.16 0.16 73 1006.2
20260506201057 69 231 1.7 6.1 0.00 0.16 0.16 73 1006.3
20260506200554 69 200 3.5 7.0 0.00 0.16 0.16 73 1006.2
20260506200051 70 210 2.6 7.8 0.00 0.16 0.16 72 1006.2
20260506195547 71 278 4.3 7.0 0.00 0.16 0.16 71 1006.3
20260506195044 71 137 2.6 7.8 0.00 0.16 0.16 70 1006.4
20260506194542 71 213 2.6 6.1 0.00 0.16 0.16 71 1006.2
20260506194037 70 222 4.3 6.1 0.00 0.16 0.16 71 1006.3
20260506193535 70 210 5.2 7.0 0.00 0.16 0.16 72 1006.3
20260506193032 69 294 3.5 4.3 0.00 0.16 0.16 74 1006.2
20260506192529 69 180 2.6 5.2 0.00 0.16 0.16 75 1006.5
20260506192025 68 168 7.0 7.8 0.00 0.16 0.16 75 1006.4
20260506191522 68 213 2.6 5.2 0.00 0.16 0.16 76 1006.5
20260506191018 68 157 3.5 7.8 0.00 0.16 0.16 76 1006.8
20260506190515 68 167 6.1 7.8 0.00 0.16 0.16 76 1006.6
20260506190012 68 218 6.1 10.4 0.00 0.16 0.16 76 1006.6
20260506185509 68 172 6.1 8.7 0.00 0.16 0.16 76 1006.7
20260506185006 67 199 5.2 9.6 0.00 0.16 0.16 76 1007.2
20260506184503 67 235 7.0 10.4 0.00 0.16 0.16 77 1006.8
20260506184000 67 261 7.0 9.6 0.00 0.16 0.16 78 1006.9
20260506183455 67 198 3.5 7.8 0.00 0.16 0.16 79 1007.0
20260506182953 66 177 3.5 4.3 0.00 0.16 0.16 79 1006.9
20260506182450 66 192 2.6 4.3 0.00 0.16 0.16 80 1007.0
20260506181947 66 188 5.2 7.0 0.00 0.16 0.16 81 1007.3
20260506181445 65 194 2.6 5.2 0.00 0.16 0.16 81 1007.3
20260506180941 65 242 11.3 13.0 0.00 0.16 0.16 81 1007.3
20260506180437 65 236 3.5 6.1 0.00 0.16 0.16 81 1007.2
20260506175929 65 197 2.6 7.0 0.00 0.16 0.16 83 1007.4
20260506175426 65 172 2.6 3.5 0.00 0.16 0.16 83 1007.3
20260506174923 65 186 5.2 6.1 0.00 0.16 0.16 83 1007.5
20260506174420 64 179 2.6 10.4 0.00 0.16 0.16 83 1007.3
20260506173917 64 211 5.2 11.3 0.00 0.16 0.16 83 1007.4
20260506173414 64 171 4.3 8.7 0.00 0.16 0.16 84 1007.4
20260506172911 64 182 6.1 13.0 0.00 0.16 0.16 83 1007.3
20260506172407 64 193 1.7 7.8 0.00 0.16 0.16 85 1007.4
20260506171904 64 224 6.1 11.3 0.00 0.16 0.16 85 1007.6
20260506171401 63 233 6.1 10.4 0.00 0.16 0.16 85 1007.4
20260506170854 63 280 3.5 8.7 0.00 0.16 0.16 86 1007.6
20260506170350 63 210 7.0 9.6 0.00 0.16 0.16 86 1007.4
20260506165849 63 211 3.5 8.7 0.00 0.16 0.16 87 1007.4
20260506165347 63 231 6.1 10.4 0.00 0.16 0.16 87 1007.5
20260506164843 62 158 1.7 7.8 0.00 0.16 0.16 88 1007.6
20260506164339 62 211 2.6 9.6 0.00 0.16 0.16 88 1007.4
20260506163837 62 165 1.7 5.2 0.00 0.16 0.16 88 1007.7
20260506163331 62 183 2.6 9.6 0.00 0.16 0.16 88 1007.7
20260506162827 62 214 4.3 7.0 0.00 0.16 0.16 89 1007.6
20260506162325 62 198 3.5 7.8 0.00 0.16 0.16 89 1007.5
20260506161823 62 163 4.3 7.8 0.00 0.16 0.16 89 1007.6
20260506161320 62 209 5.2 9.6 0.00 0.16 0.16 89 1008.0
20260506160818 62 258 6.1 7.0 0.00 0.16 0.16 90 1007.8
20260506160314 61 141 4.3 8.7 0.00 0.16 0.16 90 1007.9
20260506155813 61 208 2.6 10.4 0.00 0.16 0.16 91 1007.8
20260506155309 61 180 4.3 10.4 0.00 0.16 0.16 91 1007.9
20260506153427 61 196 2.6 11.3 0.00 0.16 0.16 91 1008.1
20260506152925 61 226 3.5 6.1 0.00 0.16 0.16 92 1007.7
20260506152421 60 196 3.5 10.4 0.02 0.16 0.16 92 1007.9
20260506151920 60 172 5.2 11.3 0.02 0.16 0.16 93 1008.0
20260506151417 60 204 5.2 8.7 0.00 0.16 0.16 93 1008.2
20260506150914 60 145 3.5 8.7 0.00 0.16 0.16 93 1008.2
20260506150410 60 213 4.3 7.0 0.02 0.16 0.16 93 1008.2
20260506145908 60 166 4.3 12.2 0.05 0.16 0.16 93 1008.6
20260506145403 60 178 2.6 7.8 0.05 0.15 0.15 93 1008.7
20260506144901 60 155 5.2 10.4 0.02 0.15 0.15 93 1008.7
20260506144357 60 176 2.6 10.4 0.02 0.15 0.15 93 1008.8
20260506143856 60 181 3.5 12.2 0.05 0.15 0.15 93 1008.4
20260506143352 60 218 2.6 7.8 0.05 0.14 0.14 93 1008.7
20260506142851 60 168 2.6 7.8 0.05 0.14 0.14 92 1008.2
20260506142348 60 208 4.3 6.1 0.05 0.13 0.13 92 1008.4
20260506141847 60 158 2.6 7.8 0.02 0.13 0.13 92 1008.7
20260506141344 60 201 5.2 8.7 0.05 0.13 0.13 92 1008.5
20260506140842 61 165 2.6 8.7 0.07 0.12 0.12 92 1008.3
20260506140339 61 186 3.5 9.6 0.07 0.12 0.12 91 1008.4
20260506135836 61 161 6.1 7.8 0.05 0.11 0.11 91 1008.5
20260506135332 61 190 4.3 11.3 0.09 0.11 0.11 91 1008.6
20260506134829 61 188 3.5 9.6 0.09 0.10 0.10 91 1008.4
20260506134325 61 163 2.6 9.6 0.09 0.09 0.09 91 1008.9
20260506133823 61 213 3.5 7.8 0.05 0.08 0.08 91 1009.0
20260506133319 61 173 2.6 7.0 0.05 0.07 0.07 91 1009.1
20260506132816 61 227 2.6 7.8 0.05 0.07 0.07 91 1009.2
20260506132313 61 235 4.3 7.8 0.05 0.07 0.07 90 1009.0
20260506131811 61 154 3.5 7.0 0.09 0.06 0.06 90 1008.8
20260506131307 61 230 2.6 5.2 0.14 0.06 0.06 89 1008.6
20260506130804 61 187 1.7 4.3 0.07 0.04 0.04 88 1008.8
20260506130300 61 215 3.5 5.2 0.07 0.04 0.04 87 1008.9
20260506125759 62 211 4.3 5.2 0.07 0.03 0.03 86 1008.7
20260506125256 62 193 2.6 5.2 0.07 0.02 0.02 85 1008.4
20260506124755 62 190 2.6 4.3 0.05 0.02 0.02 84 1008.6
20260506124251 62 178 3.5 4.3 0.05 0.01 0.01 83 1008.5
20260506123749 62 162 2.6 4.3 0.02 0.01 0.01 81 1008.6
20260506123248 63 188 3.5 4.3 0.02 0.00 0.00 78 1008.6
20260506122744 63 188 3.5 4.3 0.00 0.00 0.00 78 1008.9
20260506122241 63 206 1.7 4.3 0.00 0.00 0.00 76 1008.7
20260506121739 64 196 4.3 5.2 0.00 0.00 0.00 76 1009.0
20260506121235 64 159 4.3 5.2 0.00 0.00 0.00 75 1009.1
20260506120733 64 186 3.5 6.1 0.00 0.00 0.00 75 1008.9
20260506120231 64 207 3.5 7.8 0.00 0.00 0.00 73 1008.8
20260506115728 64 213 2.6 4.3 0.00 0.00 0.00 73 1009.0